Location: Central Falls
(41.8900°N, 71.3929°W)
Time: 03:31:16
(UTC+00:00)

Vanguard 2 Rocket - Pass Details

Date: 12 December 2023
Orbit: 555 x 3309 km, 32.9° (Epoch: 01 March)

Event Time Altitude Azimuth Distance (km) Brightness Sun altitude
Rises 00:35:52 0° 280° (W) 7,246 12.4 -36.6°
Reaches altitude 10° 00:42:21 10° 268° (W) 6,266 11.9 -37.8°
Maximum altitude 00:55:35 23° 226° (SW) 4,910 10.8 -40.2°
Drops below altitude 10° 01:06:50 10° 182° (S) 5,199 10.7 -42.3°
Sets 01:11:36 0° 168° (SSE) 5,783 10.9 -43.2°
